Wind_Speed
12 12 6 3 6 3 8 6 4 4 1 7 9 12 12 10 8 4 4 6 8 7 5 6 6 4 4 4 4 4 4 5 6 6 6 5 6 6 5 4 3 1 1 1 1 1 2 3 5
9 8 3 6 5 4 6 6 5 5 6 6 8 7 10 10 12 11 6 7 8 7 7 5 7 5 4 3 4 3 3 3 4 4 4 4 4 3 2 2 2 2 2 2 2 2 2 3 5
8 5 6 3 3 8 10 4 5 8 8 6 4 9 6 6 10 6 9 9 8 8 7 5 7 6 4 3 3 2 2 1 1 1 1 1 2 3 4 5 5 6 6 6 5 6 6 6 7
4 4 5 3 7 9 8 8 10 11 4 6 4 8 9 9 5 8 9 9 8 9 7 5 6 5 4 3 3 2 2 1 1 1 1 3 4 6 6 7 8 9 10 10 10 10 11 11 11
5 5 3 6 9 8 7 10 5 7 8 8 4 7 9 10 10 10 9 9 8 8 10 5 7 5 4 4 3 3 2 3 2 2 1 1 2 3 4 5 6 8 9 11 12 13 13 14 14
8 5 6 8 10 8 5 2 2 3 8 7 12 13 9 7 8 9 10 9 8 7 8 7 6 5 4 4 4 3 3 3 3 2 1 1 2 3 4 5 6 8 9 10 11 12 13 14 15
12 6 1 2 8 8 6 2 0 8 9 10 5 9 9 9 9 10 10 9 9 8 7 7 5 6 6 4 4 4 3 3 3 3 3 2 2 4 5 6 8 9 10 12 13 13 13 14 16
10 7 6 6 9 9 6 3 3 3 10 8 2 7 9 8 10 11 10 9 9 8 7 6 7 5 7 3 3 2 1 0 0 1 2 4 8 8 9 11 13 13 14 14 15 15 17 15 15
7 10 10 9 8 10 7 6 6 8 14 8 7 12 14 13 12 11 10 8 7 9 7 6 6 5 5 3 2 4 3 3 3 5 8 10 9 10 9 14 14 15 16 16 17 17 17 17 17
12 12 15 1 7 8 8 7 12 9 14 17 18 15 14 13 12 11 9 9 7 5 5 7 5 5 3 2 1 5 6 6 8 9 12 12 15 14 13 15 15 13 12 11 12 15 14 12 9
13 12 4 7 9 8 7 12 8 14 11 13 17 16 13 13 13 11 9 7 7 5 4 4 2 1 2 3 3 5 5 7 8 14 13 13 11 12 8 6 7 7 11 8 10 9 7 10 10
8 8 7 6 10 8 8 14 12 3 16 17 16 15 13 12 11 10 10 8 8 7 5 4 1 1 4 3 4 6 8 14 15 14 12 10 8 10 8 5 7 8 9 11 8 8 10 11 11
11 7 8 6 6 10 13 12 15 18 17 17 17 15 14 12 11 10 9 7 5 3 2 3 2 4 6 8 9 12 13 12 10 10 11 10 9 9 8 9 11 12 11 11 11 10 9 12 10
6 5 6 5 11 13 14 20 7 10 16 16 14 14 12 11 9 8 7 6 5 4 2 3 5 6 7 8 8 8 9 9 9 12 12 10 10 11 10 9 8 9 11 12 12 12 12 12 12
8 9 9 9 13 13 20 11 9 16 15 15 14 13 12 10 8 8 7 6 6 5 4 5 7 8 9 8 9 9 11 12 13 14 17 16 14 13 13 12 13 16 17 16 15 15 13 12 13
10 9 12 10 13 12 16 14 12 14 15 13 13 12 10 10 9 8 8 8 7 7 5 6 8 10 11 11 11 12 13 14 15 17 18 18 17 17 16 15 16 18 17 17 17 18 17 15 16
9 12 10 10 5 13 15 16 15 14 13 12 11 10 9 9 9 9 10 10 10 10 9 9 8 9 10 11 13 14 16 16 16 14 15 19 19 18 17 16 18 19 16 16 18 19 20 20 19
13 7 8 12 9 10 11 14 14 14 13 13 12 11 10 9 9 10 10 11 12 12 11 11 10 10 12 13 12 10 11 13 15 15 17 19 18 19 19 14 19 18 15 16 20 22 20 19 17
2 7 8 7 2 10 8 12 12 13 13 13 13 12 12 11 10 10 10 11 11 11 10 11 12 14 15 16 16 12 13 12 12 13 18 17 17 18 18 15 16 17 14 17 17 16 16 14 14
6 8 10 6 4 9 10 9 9 13 14 14 14 14 13 13 11 10 9 9 8 9 10 12 13 13 17 18 19 21 16 10 11 12 14 16 16 15 13 15 13 15 12 13 14 14 14 11 13
10 12 12 8 10 2 9 10 13 13 12 14 15 14 13 14 13 12 10 8 7 7 9 9 11 14 18 21 17 17 12 11 12 12 12 13 14 13 12 12 12 12 11 11 12 13 13 12 11
11 6 9 12 14 5 15 4 16 16 15 17 19 17 16 15 12 13 11 9 7 6 5 7 11 16 19 22 19 18 13 12 12 13 13 12 12 11 11 11 10 10 9 10 10 11 15 14 14
10 10 11 14 6 9 15 7 10 16 17 20 22 20 18 17 16 14 11 9 7 5 4 7 12 16 19 19 18 14 13 12 12 13 13 12 11 10 10 10 10 11 10 10 10 11 11 11 12
13 12 10 7 5 10 8 7 8 11 16 18 23 21 19 18 17 15 12 10 6 4 3 6 12 15 15 15 15 14 13 12 12 12 11 10 10 9 10 10 9 9 10 10 10 10 13 13 11
11 13 8 8 7 1 4 5 7 3 2 6 20 23 22 19 19 17 14 9 7 3 2 6 12 12 14 15 14 12 12 12 11 13 11 10 8 7 8 9 10 10 11 10 10 11 11 12 12
14 9 7 4 4 3 5 5 4 6 3 5 7 21 24 21 19 17 14 11 7 4 2 6 8 12 14 13 13 11 10 9 11 13 13 13 12 12 11 10 10 11 12 11 12 11 11 13 12
10 9 5 3 1 8 1 4 10 7 5 9 9 20 23 23 21 19 16 12 8 4 2 4 8 11 12 10 10 9 9 10 11 12 13 13 14 13 13 13 12 12 13 14 13 12 12 11 11
4 10 5 7 4 6 5 6 4 8 9 9 12 18 22 22 20 18 16 12 8 5 1 4 7 8 8 8 8 7 8 8 9 11 13 13 14 15 14 13 12 12 13 14 13 13 14 13 13
6 8 1 4 4 5 6 4 6 2 1 8 12 16 21 22 20 19 16 12 8 5 2 3 6 6 6 6 7 8 8 9 9 9 10 11 12 12 12 11 10 10 11 12 12 12 13 13 14
5 5 8 6 6 3 6 10 5 5 5 5 7 14 18 20 20 19 16 13 10 6 3 2 4 4 3 4 5 6 6 7 7 9 9 10 11 12 11 9 9 10 9 9 11 11 12 13 14
Wind_Direction
346 1 1 278 232 207 115 109 73 122 160 52 41 49 79 39 8 48 116 86 114 135 124 123 130 131 118 104 93 96 117 146 163 171 171 165 162 161 163 172 181 183 157 187 218 217 220 228 239
346 357 326 280 265 177 94 112 123 131 70 73 64 37 54 77 64 86 91 107 120 110 113 127 128 132 125 113 99 100 117 153 167 170 171 173 175 179 191 205 232 262 276 280 264 250 255 261 264
347 6 276 297 299 55 79 106 140 109 101 46 84 47 41 59 57 80 108 111 102 96 86 137 124 136 138 119 98 88 90 119 145 171 211 237 248 257 272 282 285 283 281 274 263 259 261 265 268
324 254 224 349 82 79 66 82 102 118 114 61 75 75 82 41 64 94 100 98 90 86 103 113 118 139 144 127 110 108 94 72 60 20 335 332 332 325 317 307 298 292 289 283 277 274 275 275 273
300 252 209 88 93 95 89 89 84 104 84 74 24 101 89 62 85 95 97 95 98 108 107 115 127 119 116 129 138 134 107 89 72 57 28 335 311 304 301 298 296 293 289 287 285 283 281 279 277
245 281 224 106 110 109 114 97 101 73 94 104 92 109 81 75 95 105 107 104 103 96 98 96 102 112 115 108 99 98 99 101 105 115 147 211 237 240 247 254 255 256 261 266 272 278 281 281 278
263 250 263 144 135 142 119 74 163 103 105 73 117 107 104 91 107 117 101 92 85 83 77 84 88 88 90 104 118 126 133 150 162 182 194 223 270 272 284 299 298 294 294 294 291 286 282 283 284
260 264 221 197 180 127 126 154 123 95 81 102 40 136 125 112 109 110 107 93 83 83 83 77 89 90 87 51 80 72 67 53 275 344 333 337 322 316 311 310 297 290 285 287 288 287 287 288 287
227 246 235 191 205 132 140 154 99 101 110 81 79 100 120 122 117 116 105 98 92 84 75 78 75 69 84 97 57 40 13 330 308 308 302 319 325 319 311 296 295 296 295 297 295 291 286 285 290
220 232 236 106 206 154 143 177 141 141 122 108 100 104 111 117 122 124 122 85 69 119 107 133 115 117 42 25 347 328 320 310 292 288 304 306 306 304 308 314 311 315 319 321 309 295 297 308 287
207 243 170 204 218 181 118 122 144 144 125 139 126 122 116 114 113 103 92 96 85 75 100 116 161 218 76 326 337 338 338 316 313 295 303 313 322 322 332 327 329 332 338 345 340 328 320 286 279
213 226 214 194 174 199 170 124 87 95 106 123 123 122 118 109 99 93 87 87 78 74 91 100 110 336 278 324 327 321 315 292 301 305 307 320 322 306 296 323 333 332 335 325 330 326 306 311 289
234 163 188 182 188 200 137 125 103 104 122 124 117 113 109 103 98 90 84 75 66 69 65 39 325 283 278 280 291 292 297 302 308 309 311 313 317 315 330 332 329 328 331 329 323 319 306 304 305
159 195 162 202 176 167 139 134 114 130 137 128 122 106 101 98 91 86 79 69 54 29 312 283 282 277 291 308 313 324 323 329 327 319 314 314 313 318 328 329 328 328 321 319 320 314 310 302 297
154 149 144 143 156 159 147 147 97 145 145 132 127 115 107 101 94 85 76 69 64 42 19 13 2 1 358 357 347 337 335 333 327 323 319 318 315 315 322 321 318 313 315 314 311 309 314 311 294
195 204 177 144 164 166 201 143 146 156 152 141 131 122 113 99 91 83 73 69 68 62 43 36 29 10 3 358 350 342 334 329 324 321 317 315 315 314 316 313 311 314 316 317 313 311 308 307 301
198 195 202 147 188 163 222 120 158 172 168 154 145 136 126 113 96 85 80 78 77 71 61 49 41 24 11 357 346 339 334 329 327 326 320 319 318 318 321 320 317 322 325 323 319 315 313 308 304
184 209 185 174 172 198 192 100 151 168 174 166 157 152 145 133 120 107 95 94 90 87 80 72 60 44 29 15 2 347 340 336 330 328 321 321 322 323 325 328 323 328 328 327 319 320 319 316 311
130 208 180 89 144 210 182 145 167 169 180 180 172 167 160 148 135 120 110 102 99 93 88 74 57 43 29 17 7 355 340 331 331 328 320 320 318 317 321 324 326 326 338 332 334 335 332 332 324
216 196 124 120 173 228 169 166 177 176 186 191 186 182 169 155 143 135 130 120 109 100 82 61 45 33 21 10 2 352 339 330 335 334 337 332 335 335 340 337 344 339 351 348 354 354 354 344 347
215 208 165 133 140 199 177 208 194 186 199 193 199 190 176 168 166 157 152 137 116 94 68 48 29 19 13 10 357 354 348 342 330 340 337 341 346 349 350 350 352 354 7 355 10 11 14 10 7
181 210 170 155 188 196 206 263 194 187 200 204 198 191 184 175 177 166 158 147 133 100 53 17 13 13 3 3 2 358 358 348 341 342 333 348 342 352 356 360 2 10 23 17 14 14 21 21 17
100 154 162 173 208 167 196 256 108 176 211 207 205 196 190 186 179 173 162 160 142 104 33 9 11 358 360 4 1 4 356 350 343 341 342 344 343 352 4 7 15 20 24 16 14 23 16 9 10
131 138 159 204 224 236 130 251 179 178 229 205 202 198 197 188 180 174 170 160 144 116 49 19 0 356 4 4 1 2 358 359 356 352 353 345 348 359 360 10 20 23 20 13 16 15 8 7 11
178 179 201 213 201 265 78 249 298 101 132 270 190 194 198 191 183 179 176 170 164 160 47 12 349 2 2 3 3 2 4 1 7 5 355 357 355 8 359 16 18 18 18 15 15 10 9 8 10
198 203 280 236 235 86 154 249 94 98 116 167 201 190 191 191 188 185 182 178 178 163 51 355 6 4 3 6 6 8 20 19 18 32 34 29 27 26 33 26 28 25 26 29 29 17 23 16 19
171 223 19 293 176 262 184 144 172 163 161 173 166 175 182 188 190 185 183 179 177 157 323 17 13 10 9 13 24 27 36 33 38 33 30 29 28 33 37 43 44 47 38 28 30 17 22 23 19
253 131 188 205 262 268 164 245 297 164 169 172 176 183 184 189 188 184 182 180 172 156 145 25 16 16 20 30 28 30 29 36 38 35 38 42 44 46 48 52 48 40 30 26 36 36 31 34 33
164 183 238 340 304 289 294 337 84 139 179 177 190 186 186 188 187 185 182 180 174 166 143 32 20 25 35 32 31 37 46 45 31 36 37 38 36 36 36 36 31 27 26 27 32 33 31 28 23
287 241 188 246 176 244 302 292 116 139 171 210 172 179 183 185 184 183 182 177 176 173 174 22 23 44 50 41 50 55 48 39 35 40 39 41 39 31 24 24 24 26 22 20 20 17 15 10 7
Height
1523 1521 1519 1520 1513 1496 1509 1516 1512 1518 1516 1524 1526 1524 1530 1533 1532 1541 1546 1546 1548 1549 1547 1547 1549 1550 1551 1551 1551 1550 1551 1551 1551 1551 1551 1551 1550 1550 1549 1548 1548 1548 1548 1548 1548 1548 1547 1547 1546
1524 1522 1521 1514 1503 1501 1511 1509 1512 1514 1522 1527 1529 1529 1530 1538 1541 1545 1548 1549 1550 1549 1550 1552 1549 1551 1552 1552 1552 1552 1552 1553 1552 1552 1552 1551 1551 1551 1550 1550 1549 1548 1548 1547 1547 1547 1547 1547 1546
1524 1523 1519 1506 1506 1511 1512 1510 1511 1516 1525 1527 1530 1533 1534 1542 1544 1547 1549 1550 1551 1551 1553 1551 1551 1551 1552 1553 1553 1554 1554 1554 1554 1553 1553 1553 1552 1551 1551 1550 1549 1548 1548 1547 1546 1546 1545 1545 1544
1527 1525 1519 1508 1514 1517 1511 1513 1515 1521 1528 1531 1532 1535 1542 1546 1546 1549 1551 1552 1553 1554 1555 1553 1553 1552 1553 1553 1554 1554 1554 1555 1554 1554 1554 1553 1553 1552 1551 1551 1550 1549 1548 1547 1546 1545 1544 1544 1543
1527 1520 1508 1514 1518 1516 1517 1518 1519 1520 1526 1532 1533 1538 1544 1549 1549 1552 1553 1555 1556 1555 1556 1554 1552 1553 1554 1554 1554 1555 1555 1555 1555 1555 1554 1553 1552 1551 1550 1549 1549 1548 1547 1547 1546 1545 1543 1542 1541
1522 1519 1510 1515 1520 1518 1518 1521 1522 1524 1530 1535 1537 1538 1547 1551 1552 1554 1555 1556 1556 1555 1555 1556 1554 1554 1555 1555 1556 1556 1556 1555 1555 1554 1553 1552 1551 1550 1548 1547 1546 1544 1544 1543 1543 1542 1542 1541 1540
1521 1514 1511 1515 1519 1519 1519 1523 1521 1523 1529 1537 1539 1537 1550 1552 1553 1553 1555 1557 1558 1558 1558 1558 1559 1556 1556 1556 1556 1556 1555 1555 1553 1552 1552 1551 1551 1550 1549 1548 1547 1546 1545 1544 1543 1542 1540 1539 1538
1521 1516 1515 1512 1515 1517 1521 1523 1525 1525 1535 1539 1540 1539 1548 1552 1553 1555 1557 1559 1559 1560 1561 1561 1560 1560 1561 1559 1557 1557 1556 1555 1555 1554 1553 1552 1551 1550 1548 1547 1544 1543 1542 1541 1540 1539 1538 1537 1535
1523 1517 1512 1510 1514 1515 1522 1521 1530 1534 1536 1541 1543 1546 1550 1553 1556 1558 1559 1560 1561 1561 1562 1562 1562 1561 1562 1562 1559 1558 1557 1557 1556 1554 1553 1552 1552 1549 1548 1544 1543 1541 1540 1538 1537 1536 1535 1534 1532
1519 1513 1507 1504 1509 1509 1518 1520 1529 1533 1538 1544 1547 1550 1552 1555 1557 1557 1558 1559 1560 1557 1557 1558 1559 1561 1562 1562 1560 1559 1557 1556 1555 1553 1551 1550 1548 1546 1545 1542 1541 1539 1538 1536 1534 1533 1532 1531 1531
1515 1511 1507 1513 1513 1513 1518 1525 1529 1529 1535 1542 1548 1551 1554 1554 1555 1556 1557 1557 1557 1558 1558 1559 1560 1560 1561 1562 1560 1559 1558 1555 1553 1550 1549 1547 1546 1544 1544 1544 1543 1540 1537 1537 1535 1533 1533 1531 1530
1515 1512 1514 1512 1517 1518 1517 1527 1531 1529 1540 1546 1551 1553 1555 1556 1556 1557 1558 1558 1559 1559 1560 1560 1560 1559 1559 1560 1559 1558 1556 1553 1552 1549 1548 1546 1545 1542 1541 1541 1541 1539 1537 1534 1532 1533 1529 1527 1526
1512 1512 1515 1517 1518 1519 1521 1526 1535 1543 1548 1550 1551 1554 1555 1557 1558 1559 1560 1561 1561 1561 1560 1560 1559 1559 1558 1558 1557 1556 1555 1552 1551 1549 1546 1545 1543 1541 1540 1538 1536 1534 1533 1532 1531 1528 1529 1528 1526
1511 1513 1514 1516 1517 1520 1523 1535 1534 1550 1550 1552 1554 1555 1556 1558 1560 1561 1562 1562 1561 1561 1560 1560 1559 1558 1558 1557 1557 1556 1554 1552 1551 1548 1546 1544 1542 1540 1539 1538 1536 1534 1531 1529 1528 1526 1524 1525 1524
1512 1512 1515 1516 1518 1521 1525 1532 1541 1550 1551 1553 1555 1556 1557 1559 1561 1562 1561 1561 1561 1561 1559 1559 1558 1558 1557 1556 1556 1555 1553 1552 1550 1548 1545 1543 1541 1539 1537 1535 1533 1530 1528 1526 1524 1522 1521 1521 1521
1509 1505 1507 1515 1518 1522 1521 1527 1550 1551 1551 1553 1555 1556 1559 1561 1561 1560 1561 1560 1560 1560 1559 1559 1559 1558 1557 1556 1555 1554 1552 1551 1549 1547 1544 1542 1539 1537 1535 1533 1530 1527 1525 1522 1520 1518 1517 1516 1515
1505 1503 1500 1513 1516 1518 1518 1528 1549 1551 1551 1554 1555 1557 1559 1560 1561 1561 1561 1561 1559 1560 1560 1560 1559 1558 1557 1556 1554 1553 1550 1548 1546 1543 1541 1538 1536 1534 1532 1529 1526 1524 1521 1519 1516 1514 1512 1510 1508
1501 1499 1501 1504 1513 1512 1513 1527 1546 1550 1551 1552 1554 1557 1559 1560 1561 1561 1562 1561 1561 1561 1561 1561 1560 1559 1558 1557 1556 1555 1553 1548 1544 1541 1538 1535 1532 1529 1527 1526 1522 1520 1519 1516 1512 1509 1508 1506 1504
1492 1495 1501 1503 1517 1513 1514 1537 1545 1550 1551 1552 1552 1555 1557 1560 1561 1561 1562 1562 1561 1562 1561 1561 1560 1559 1558 1558 1556 1554 1552 1548 1545 1540 1535 1533 1530 1527 1525 1523 1521 1518 1516 1512 1509 1507 1506 1505 1501
1500 1500 1506 1518 1518 1515 1523 1536 1545 1547 1549 1550 1551 1553 1556 1559 1563 1563 1563 1562 1563 1562 1562 1561 1560 1560 1559 1557 1554 1551 1548 1546 1542 1539 1535 1530 1528 1525 1523 1520 1519 1516 1515 1512 1510 1506 1505 1504 1501
1498 1497 1506 1507 1519 1519 1526 1530 1535 1543 1546 1546 1549 1551 1555 1557 1560 1561 1563 1563 1563 1562 1561 1561 1561 1559 1556 1555 1553 1550 1548 1546 1543 1539 1536 1531 1527 1525 1522 1520 1518 1517 1515 1513 1510 1508 1505 1503 1502
1499 1494 1501 1512 1512 1511 1518 1507 1518 1527 1539 1542 1544 1549 1552 1555 1560 1560 1561 1563 1563 1562 1561 1561 1559 1557 1555 1552 1550 1547 1546 1544 1541 1539 1535 1532 1528 1525 1523 1521 1519 1516 1515 1513 1512 1509 1506 1504 1502
1495 1495 1501 1506 1504 1509 1519 1515 1506 1517 1529 1530 1536 1544 1547 1553 1555 1559 1560 1562 1562 1561 1561 1560 1558 1556 1554 1551 1548 1548 1545 1543 1541 1537 1534 1531 1529 1525 1523 1520 1518 1516 1516 1514 1512 1509 1508 1506 1504
1496 1500 1502 1503 1498 1509 1496 1509 1500 1507 1509 1515 1527 1538 1545 1549 1553 1556 1559 1559 1560 1561 1562 1560 1558 1556 1553 1551 1549 1546 1543 1540 1538 1535 1533 1530 1527 1525 1522 1521 1518 1517 1517 1515 1513 1510 1509 1506 1505
1493 1498 1505 1511 1508 1510 1505 1511 1496 1501 1509 1509 1513 1530 1540 1546 1550 1553 1556 1558 1560 1561 1560 1559 1557 1556 1553 1550 1548 1545 1542 1540 1538 1535 1531 1528 1525 1523 1522 1521 1519 1518 1517 1516 1514 1512 1510 1508 1505
1491 1491 1496 1520 1512 1502 1507 1510 1497 1506 1514 1516 1518 1524 1535 1543 1547 1550 1554 1557 1559 1559 1558 1558 1558 1555 1552 1550 1548 1545 1543 1541 1538 1535 1533 1530 1527 1525 1523 1522 1521 1520 1519 1517 1515 1514 1512 1509 1508
1492 1498 1491 1502 1503 1509 1493 1498 1499 1506 1511 1515 1518 1523 1531 1539 1543 1547 1552 1555 1557 1557 1556 1558 1556 1554 1552 1551 1549 1547 1544 1542 1540 1538 1536 1533 1530 1527 1526 1524 1524 1523 1521 1519 1517 1515 1512 1511 1509
1486 1488 1504 1496 1518 1521 1497 1503 1498 1501 1504 1511 1517 1522 1529 1536 1541 1545 1549 1552 1554 1555 1556 1555 1554 1553 1553 1552 1550 1548 1545 1544 1543 1541 1539 1537 1534 1532 1530 1529 1527 1526 1524 1521 1519 1518 1515 1513 1511
1493 1492 1495 1496 1501 1509 1512 1497 1488 1496 1500 1505 1510 1518 1524 1531 1537 1543 1547 1549 1551 1553 1555 1554 1554 1553 1553 1552 1551 1549 1547 1546 1546 1544 1542 1539 1536 1534 1533 1531 1530 1528 1526 1524 1522 1520 1518 1516 1513
1481 1480 1488 1498 1508 1499 1508 1506 1492 1497 1501 1505 1507 1515 1521 1528 1534 1540 1544 1547 1550 1552 1553 1553 1552 1553 1553 1552 1551 1551 1550 1549 1547 1545 1543 1541 1539 1537 1534 1532 1530 1528 1527 1525 1523 1521 1519 1517 1515